Hourly Weather Kletnia

Today, 21 April, Wednesday

Time Temperature Precipitation Wind Pressure Humidity
00:00 +7°C° 0 mm 2 mps 747 mmHg 80%
01:00 +6°C° 0 mm 2 mps 747 mmHg 82%
02:00 +6°C° 0 mm 2 mps 747 mmHg 82%
03:00 +6°C° 0 mm 2 mps 747 mmHg 82%
04:00 +6°C° 0 mm 2 mps 747 mmHg 82%
05:00 +7°C° 0 mm 2 mps 747 mmHg 80%
06:00 +8°C° 0 mm 2 mps 747 mmHg 77%
07:00 +9°C° 0 mm 3 mps 747 mmHg 75%
08:00 +11°C° 0.1 mm 3 mps 747 mmHg 70%
09:00 +12°C° 0.1 mm 4 mps 746 mmHg 64%
10:00 +14°C° 0.1 mm 4 mps 746 mmHg 58%
11:00 +14°C° 0.4 mm 5 mps 746 mmHg 56%
12:00 +15°C° 0.4 mm 5 mps 746 mmHg 55%
13:00 +15°C° 0.4 mm 5 mps 746 mmHg 53%
14:00 +15°C° 0.2 mm 5 mps 746 mmHg 53%
15:00 +15°C° 0.2 mm 5 mps 746 mmHg 54%
16:00 +15°C° 0.2 mm 4 mps 745 mmHg 54%
17:00 +14°C° 0.1 mm 4 mps 746 mmHg 60%
18:00 +12°C° 0.1 mm 3 mps 746 mmHg 66%
19:00 +11°C° 0.1 mm 3 mps 746 mmHg 72%
20:00 +10°C° 0 mm 3 mps 746 mmHg 74%
21:00 +9°C° 0 mm 3 mps 746 mmHg 76%
22:00 +8°C° 0 mm 3 mps 746 mmHg 78%
23:00 +8°C° 0 mm 3 mps 746 mmHg 77%

Tomorrow, 22 April, Thursday

Time Temperature Precipitation Wind Pressure Humidity
00:00 +8°C° 0 mm 3 mps 746 mmHg 76%
01:00 +7°C° 0 mm 3 mps 746 mmHg 76%
02:00 +7°C° 0 mm 3 mps 746 mmHg 79%
03:00 +7°C° 0 mm 3 mps 746 mmHg 82%
04:00 +5°C° 0 mm 3 mps 746 mmHg 84%
05:00 +5°C° 0.1 mm 3 mps 747 mmHg 85%
06:00 +6°C° 0.1 mm 4 mps 747 mmHg 85%
07:00 +6°C° 0.1 mm 4 mps 748 mmHg 85%
08:00 +6°C° 0.1 mm 5 mps 748 mmHg 78%
09:00 +5°C° 0.1 mm 6 mps 748 mmHg 72%
10:00 +5°C° 0.1 mm 6 mps 749 mmHg 65%
11:00 +7°C° 0 mm 6 mps 749 mmHg 57%
12:00 +6°C° 0 mm 7 mps 749 mmHg 49%
13:00 +8°C° 0 mm 7 mps 749 mmHg 42%
14:00 +8°C° 0 mm 7 mps 749 mmHg 43%
15:00 +8°C° 0 mm 7 mps 749 mmHg 45%
16:00 +8°C° 0 mm 7 mps 749 mmHg 46%
17:00 +7°C° 0 mm 6 mps 749 mmHg 52%
18:00 +6°C° 0 mm 5 mps 749 mmHg 59%
19:00 +4°C° 0 mm 4 mps 750 mmHg 65%
20:00 +4°C° 0 mm 4 mps 750 mmHg 73%
21:00 +3°C° 0 mm 4 mps 750 mmHg 80%
22:00 +2°C° 0 mm 3 mps 750 mmHg 88%
23:00 +1°C° 0 mm 4 mps 750 mmHg 88%

Day after tomorrow, 23 April, Friday

Time Temperature Precipitation Wind Pressure Humidity
00:00 +1°C° 0 mm 4 mps 750 mmHg 88%
01:00 0°C° 0 mm 4 mps 750 mmHg 88%
02:00 0°C° 0 mm 5 mps 750 mmHg 85%
03:00 0°C° 0 mm 5 mps 750 mmHg 81%
04:00 -1°C° 0 mm 5 mps 751 mmHg 78%
05:00 0°C° 0 mm 5 mps 751 mmHg 74%
06:00 +1°C° 0 mm 5 mps 751 mmHg 70%
07:00 +2°C° 0 mm 5 mps 751 mmHg 67%
08:00 +3°C° 0.1 mm 5 mps 751 mmHg 60%
09:00 +5°C° 0.1 mm 6 mps 751 mmHg 54%
10:00 +7°C° 0.1 mm 6 mps 751 mmHg 48%
11:00 +7°C° 0.1 mm 6 mps 751 mmHg 46%
12:00 +8°C° 0.1 mm 6 mps 751 mmHg 43%
13:00 +9°C° 0.1 mm 6 mps 751 mmHg 40%
14:00 +7°C° 0.4 mm 6 mps 751 mmHg 53%
15:00 +5°C° 0.4 mm 6 mps 751 mmHg 65%
16:00 +3°C° 0.4 mm 7 mps 751 mmHg 78%
17:00 +2°C° 0.1 mm 6 mps 751 mmHg 80%
18:00 +1°C° 0.1 mm 5 mps 752 mmHg 82%
19:00 0°C° 0.1 mm 4 mps 752 mmHg 84%
20:00 0°C° 0 mm 4 mps 752 mmHg 84%
21:00 0°C° 0 mm 4 mps 753 mmHg 83%
22:00 -1°C° 0 mm 4 mps 753 mmHg 82%
23:00 -1°C° 0 mm 4 mps 753 mmHg 85%

24 April, Saturday

Time Temperature Precipitation Wind Pressure Humidity
00:00 -1°C° 0 mm 3 mps 753 mmHg 88%
01:00 -1°C° 0 mm 3 mps 753 mmHg 91%
02:00 -1°C° 0 mm 3 mps 753 mmHg 90%
03:00 -3°C° 0 mm 4 mps 753 mmHg 89%
04:00 -3°C° 0 mm 4 mps 753 mmHg 88%
05:00 -2°C° 0 mm 4 mps 753 mmHg 82%
06:00 -1°C° 0 mm 5 mps 754 mmHg 75%
07:00 +1°C° 0 mm 6 mps 754 mmHg 69%
08:00 +2°C° 0.1 mm 6 mps 754 mmHg 62%
09:00 +4°C° 0.1 mm 6 mps 754 mmHg 54%
10:00 +5°C° 0.1 mm 6 mps 754 mmHg 47%
11:00 +6°C° 0 mm 7 mps 753 mmHg 44%
12:00 +6°C° 0 mm 7 mps 753 mmHg 41%
13:00 +6°C° 0 mm 7 mps 753 mmHg 38%
14:00 +6°C° 0 mm 7 mps 753 mmHg 41%
15:00 +7°C° 0 mm 6 mps 753 mmHg 43%
16:00 +7°C° 0 mm 6 mps 753 mmHg 46%
17:00 +5°C° 0.1 mm 5 mps 753 mmHg 58%
18:00 +4°C° 0.1 mm 4 mps 754 mmHg 70%
19:00 +2°C° 0.1 mm 3 mps 754 mmHg 82%
20:00 +1°C° 0 mm 3 mps 754 mmHg 85%
21:00 +1°C° 0 mm 3 mps 754 mmHg 89%
22:00 +1°C° 0 mm 2 mps 754 mmHg 92%
23:00 -1°C° 0 mm 3 mps 754 mmHg 90%

25 April, Sunday

Time Temperature Precipitation Wind Pressure Humidity
00:00 -1°C° 0 mm 3 mps 755 mmHg 88%
01:00 -2°C° 0 mm 3 mps 755 mmHg 87%
02:00 -2°C° 0 mm 3 mps 755 mmHg 87%
03:00 -3°C° 0 mm 4 mps 755 mmHg 87%
04:00 -3°C° 0 mm 4 mps 755 mmHg 87%
05:00 -2°C° 0 mm 4 mps 755 mmHg 80%
06:00 -1°C° 0 mm 5 mps 755 mmHg 73%
07:00 +1°C° 0 mm 5 mps 755 mmHg 67%
08:00 +2°C° 0.1 mm 6 mps 755 mmHg 60%
09:00 +3°C° 0.1 mm 6 mps 755 mmHg 54%
10:00 +4°C° 0.1 mm 6 mps 755 mmHg 48%
11:00 +5°C° 0.1 mm 6 mps 754 mmHg 48%
12:00 +5°C° 0.1 mm 6 mps 754 mmHg 49%
13:00 +5°C° 0.1 mm 6 mps 754 mmHg 49%
14:00 +5°C° 0.2 mm 6 mps 753 mmHg 52%
15:00 +5°C° 0.2 mm 6 mps 753 mmHg 55%
16:00 +5°C° 0.2 mm 6 mps 753 mmHg 58%
17:00 +3°C° 0.1 mm 5 mps 753 mmHg 65%
18:00 +3°C° 0.1 mm 4 mps 753 mmHg 71%
19:00 +2°C° 0.1 mm 3 mps 754 mmHg 78%
20:00 +1°C° 0 mm 3 mps 754 mmHg 79%
21:00 0°C° 0 mm 3 mps 754 mmHg 80%
22:00 -1°C° 0 mm 3 mps 754 mmHg 82%
23:00 -1°C° 0 mm 3 mps 754 mmHg 81%

26 April, Monday

Time Temperature Precipitation Wind Pressure Humidity
00:00 -2°C° 0 mm 3 mps 754 mmHg 81%
01:00 -2°C° 0 mm 3 mps 754 mmHg 80%
02:00 -2°C° 0 mm 3 mps 754 mmHg 81%
03:00 -4°C° 0 mm 3 mps 754 mmHg 81%
04:00 -4°C° 0 mm 3 mps 754 mmHg 81%
05:00 -2°C° 0 mm 4 mps 754 mmHg 73%
06:00 0°C° 0 mm 4 mps 754 mmHg 65%
07:00 +2°C° 0 mm 5 mps 754 mmHg 57%
08:00 +3°C° 0 mm 5 mps 754 mmHg 52%
09:00 +6°C° 0 mm 5 mps 754 mmHg 47%
10:00 +8°C° 0 mm 5 mps 754 mmHg 42%
11:00 +8°C° 0 mm 5 mps 754 mmHg 41%
12:00 +9°C° 0 mm 5 mps 754 mmHg 40%
13:00 +10°C° 0 mm 5 mps 753 mmHg 40%
14:00 +10°C° 0 mm 5 mps 753 mmHg 40%
15:00 +10°C° 0 mm 4 mps 753 mmHg 41%
16:00 +10°C° 0 mm 4 mps 753 mmHg 42%
17:00 +9°C° 0 mm 3 mps 752 mmHg 48%
18:00 +7°C° 0 mm 3 mps 752 mmHg 54%
19:00 +5°C° 0 mm 2 mps 752 mmHg 61%
20:00 +5°C° 0 mm 2 mps 752 mmHg 61%
21:00 +5°C° 0 mm 1 mps 752 mmHg 62%
22:00 +5°C° 0 mm 1 mps 752 mmHg 62%
23:00 +4°C° 0 mm 1 mps 752 mmHg 64%
Show more

We Need Your Consent

Meteoprog and our Service Providers may store and access personal data such as cookies, device identifiers or other similar technologies on your device and process such data to personalise content and ads, as well as provide social media features and to analyse the traffic.

  • Store and/or access information on your device

    Cookies, device identifiers or other information can be stored or accessed on your device for the purposes indicated above.

  • Personalised ads and content, ad and content measurement, audience insights, and products development

    Ads and content can be personalised based on a profile. More data can be added to better personalise ads and content. Ad and content performance can be measured. Insights about the audience who saw the ads and content can be derived. Such data can be used to develop or improve user’s experience, systems and software.

By clicking ‘I Agree’ you will allow the use of indicated cookies, device identifiers, web beacons or other similar technologies. Your settings can be changed in the browser on your device.

For certain purposes, legitimate interests may be relied on, rather than consent. You can read more about this in our Privacy and Cookie Policy.